Weather History for Flippin, AR

Change the Weather History Date:

Thursday, January 15, 2004

  Actual Average Record
Temperature  
Mean Temperature 39 °F -  
Max Temperature 50 °F 45 °F 62 °F (2000)
Min Temperature 28 °F 26 °F 14 °F (2009)
Degree Days  
Heating Degree Days 26    
Moisture  
Dew Point 24 °F    
Average Humidity 55    
Maximum Humidity 86    
Minimum Humidity 32    
Precipitation  
Precipitation 0.00 in - - ()
Sea Level Pressure  
Sea Level Pressure 30.20 in    
Wind  
Wind Speed 4 mph (NNE)    
Max Wind Speed 13 mph    
Max Gust Speed -    
Visibility 10 miles    
Events      
Averages and records for this station are not official NWS values.
T = Trace of Precipitation, MM = Missing Value Source: NWS Daily Summary

Daily Weather History Graph

Daily Weather History Graph

Search for Another Location

Airport:

Trip Planner

Search our weather history database for the weather conditions in past years. The results will help you decide how hot, cold, wet, or windy it might be!

Date:

Astronomy

Jan. 15, 2004 Rise Set
Actual Time 7:21 AM CST 5:18 PM CST
Civil Twilight 6:53 AM CST 5:46 PM CST
Nautical Twilight 6:21 AM CST 6:18 PM CST
Astronomical Twilight 5:50 AM CST 6:49 PM CST
Moon 12:35 AM CST (1/15) 11:59 AM CST (1/15)
Length of Visible Light 10h 53m
Length of Day
9h 57m
Last Quarter, 44% of the Moon is Illuminated
Jan 15
Last Quarter
Jan 21
New
Jan 29
First Quarter
Feb 6
Full
Feb 13
Last Quarter

Hourly Weather History & Observations

Time (CST) Temp. Windchill Dew Point Humidity Pressure Visibility Wind Dir Wind Speed Gust Speed Precip Events Conditions
12:15 AM 44.6 °F 42.2 °F 30.2 °F 57% 30.17 in 10.0 mi NNW 4.6 mph - N/A   Clear
12:35 AM 44.6 °F 40.7 °F 30.2 °F 57% 30.17 in 10.0 mi NNW 6.9 mph - N/A   Clear
12:55 AM 42.8 °F 37.5 °F 30.2 °F 61% 30.18 in 10.0 mi NNW 9.2 mph - N/A   Clear
1:15 AM 42.8 °F 39.3 °F 28.4 °F 57% 30.18 in 10.0 mi NNW 5.8 mph - N/A   Clear
1:35 AM 41.0 °F 35.8 °F 28.4 °F 61% 30.18 in 10.0 mi North 8.1 mph - N/A   Clear
1:55 AM 39.2 °F 33.0 °F 28.4 °F 65% 30.18 in 10.0 mi NNE 9.2 mph - N/A   Clear
2:15 AM 39.2 °F 35.0 °F 28.4 °F 65% 30.19 in 10.0 mi North 5.8 mph - N/A   Clear
2:35 AM 37.4 °F 30.3 °F 26.6 °F 65% 30.20 in 10.0 mi North 10.4 mph - N/A   Clear
2:55 AM 37.4 °F 29.3 °F 24.8 °F 60% 30.20 in 10.0 mi North 12.7 mph - N/A   Clear
3:15 AM 35.6 °F 28.6 °F 23.0 °F 60% 30.21 in 10.0 mi North 9.2 mph - N/A   Clear
3:35 AM 35.6 °F 29.2 °F 21.2 °F 56% 30.21 in 10.0 mi North 8.1 mph - N/A   Clear
3:55 AM 35.6 °F 30.7 °F 21.2 °F 56% 30.21 in 10.0 mi NNW 5.8 mph - N/A   Clear
4:15 AM 33.8 °F 29.6 °F 21.2 °F 60% 30.21 in 10.0 mi NNW 4.6 mph - N/A   Clear
4:35 AM 33.8 °F 30.8 °F 21.2 °F 60% 30.22 in 10.0 mi NNW 3.5 mph - N/A   Clear
4:55 AM 33.8 °F 30.8 °F 21.2 °F 60% 30.22 in 10.0 mi North 3.5 mph - N/A   Clear
5:15 AM 32.0 °F 28.7 °F 21.2 °F 64% 30.22 in 10.0 mi NNW 3.5 mph - N/A   Clear
5:35 AM 30.2 °F - 19.4 °F 64% 30.22 in 10.0 mi Calm Calm - N/A   Clear
5:55 AM 30.2 °F - 21.2 °F 69% 30.23 in 10.0 mi Calm Calm - N/A   Clear
6:15 AM 30.2 °F - 21.2 °F 69% 30.23 in 10.0 mi Calm Calm - N/A   Clear
6:35 AM 30.2 °F - 21.2 °F 69% 30.23 in 10.0 mi Calm Calm - N/A   Clear
6:55 AM 30.2 °F - 21.2 °F 69% 30.24 in 10.0 mi Calm Calm - N/A   Clear
7:15 AM 30.2 °F - 21.2 °F 69% 30.24 in 10.0 mi Calm Calm - N/A   Clear
7:35 AM 28.4 °F - 21.2 °F 74% 30.24 in 10.0 mi Calm Calm - N/A   Clear
7:55 AM 28.4 °F 24.6 °F 23.0 °F 80% 30.24 in 10.0 mi North 3.5 mph - N/A   Clear
8:15 AM 28.4 °F 23.3 °F 24.8 °F 86% 30.24 in 10.0 mi North 4.6 mph - N/A   Clear
8:35 AM 30.2 °F 25.4 °F 24.8 °F 80% 30.24 in 10.0 mi NNE 4.6 mph - N/A   Clear
8:55 AM 33.8 °F 29.6 °F 24.8 °F 70% 30.25 in 10.0 mi NE 4.6 mph - N/A   Clear
9:15 AM 35.6 °F 31.7 °F 23.0 °F 60% 30.26 in 10.0 mi ENE 4.6 mph - N/A   Clear
9:35 AM 35.6 °F - 24.8 °F 65% 30.27 in 10.0 mi Calm Calm - N/A   Clear
9:55 AM 35.6 °F 32.8 °F 24.8 °F 65% 30.27 in 10.0 mi East 3.5 mph - N/A   Clear
10:15 AM 37.4 °F - 24.8 °F 60% 30.28 in 10.0 mi Calm Calm - N/A   Clear
10:35 AM 37.4 °F - 23.0 °F 56% 30.28 in 10.0 mi Calm Calm - N/A   Clear
10:55 AM 37.4 °F - 23.0 °F 56% 30.27 in 10.0 mi Calm Calm - N/A   Clear
11:15 AM 39.2 °F 35.9 °F 23.0 °F 52% 30.27 in 10.0 mi ESE 4.6 mph - N/A   Clear
11:35 AM 41.0 °F 36.4 °F 24.8 °F 53% 30.26 in 10.0 mi East 6.9 mph - N/A   Clear
11:55 AM 42.8 °F 41.1 °F 24.8 °F 49% 30.24 in 10.0 mi East 3.5 mph - N/A   Clear
12:15 PM 42.8 °F 40.1 °F 24.8 °F 49% 30.22 in 10.0 mi SSW 4.6 mph - N/A   Clear
12:35 PM 44.6 °F 43.1 °F 24.8 °F 46% 30.21 in 10.0 mi East 3.5 mph - N/A   Clear
12:55 PM 44.6 °F - 24.8 °F 46% 30.20 in 10.0 mi Calm Calm - N/A   Clear
1:15 PM 46.4 °F - 24.8 °F 43% 30.19 in 10.0 mi Calm Calm - N/A   Clear
1:35 PM 48.2 °F - 24.8 °F 40% 30.18 in 10.0 mi ESE 3.5 mph - N/A   Clear
1:55 PM 48.2 °F - 24.8 °F 40% 30.17 in 10.0 mi Calm Calm - N/A   Clear
2:15 PM 48.2 °F - 24.8 °F 40% 30.16 in 10.0 mi Calm Calm - N/A   Clear
2:35 PM 48.2 °F - 24.8 °F 40% 30.16 in 10.0 mi Calm Calm - N/A   Clear
2:55 PM 50.0 °F - 23.0 °F 35% 30.16 in 10.0 mi SSW 3.5 mph - N/A   Clear
3:15 PM 50.0 °F - 21.2 °F 32% 30.15 in 10.0 mi Calm Calm - N/A   Clear
3:35 PM 50.0 °F - 24.8 °F 37% 30.15 in 10.0 mi Calm Calm - N/A   Clear
3:55 PM 50.0 °F - 24.8 °F 37% 30.15 in 10.0 mi ENE 3.5 mph - N/A   Clear
4:15 PM 48.2 °F - 23.0 °F 37% 30.14 in 10.0 mi Calm Calm - N/A   Clear
4:35 PM 48.2 °F - 24.8 °F 40% 30.13 in 10.0 mi NNE 3.5 mph - N/A   Clear
4:55 PM 48.2 °F - 23.0 °F 37% 30.13 in 10.0 mi Calm Calm - N/A   Clear
5:15 PM 46.4 °F 45.2 °F 23.0 °F 40% 30.13 in 10.0 mi ENE 3.5 mph - N/A   Clear
5:35 PM 46.4 °F 45.2 °F 23.0 °F 40% 30.12 in 10.0 mi East 3.5 mph - N/A   Clear
5:55 PM 44.6 °F - 23.0 °F 43% 30.13 in 10.0 mi Calm Calm - N/A   Clear
6:15 PM 44.6 °F - 23.0 °F 43% 30.13 in 10.0 mi Calm Calm - N/A   Clear
6:35 PM 42.8 °F 41.1 °F 23.0 °F 46% 30.13 in 10.0 mi ESE 3.5 mph - N/A   Clear
6:55 PM 42.8 °F 41.1 °F 23.0 °F 46% 30.13 in 10.0 mi ESE 3.5 mph - N/A   Clear
7:15 PM 42.8 °F 41.1 °F 23.0 °F 46% 30.13 in 10.0 mi ESE 3.5 mph - N/A   Clear
7:35 PM 42.8 °F - 23.0 °F 46% 30.13 in 10.0 mi Calm Calm - N/A   Clear
7:55 PM 42.8 °F - 23.0 °F 46% 30.13 in 10.0 mi Calm Calm - N/A   Clear
8:15 PM 41.0 °F - 23.0 °F 49% 30.13 in 10.0 mi Calm Calm - N/A   Clear
8:35 PM 37.4 °F - 24.8 °F 60% 30.13 in 10.0 mi Calm Calm - N/A   Clear
8:55 PM 39.2 °F - 23.0 °F 52% 30.12 in 10.0 mi Calm Calm - N/A   Clear
9:15 PM 39.2 °F 37.0 °F 23.0 °F 52% 30.12 in 10.0 mi ESE 3.5 mph - N/A   Clear
9:35 PM 39.2 °F - 23.0 °F 52% 30.11 in 10.0 mi Calm Calm - N/A   Clear
9:55 PM 37.4 °F - 24.8 °F 60% 30.12 in 10.0 mi Calm Calm - N/A   Clear
10:15 PM 35.6 °F - 24.8 °F 65% 30.13 in 10.0 mi Calm Calm - N/A   Clear
10:35 PM 39.2 °F 37.0 °F 24.8 °F 56% 30.13 in 10.0 mi ESE 3.5 mph - N/A   Clear
10:55 PM 39.2 °F 37.0 °F 24.8 °F 56% 30.13 in 10.0 mi ESE 3.5 mph - N/A   Clear
11:15 PM 39.2 °F 35.9 °F 24.8 °F 56% 30.13 in 10.0 mi East 4.6 mph - N/A   Clear
11:35 PM 37.4 °F 33.8 °F 24.8 °F 60% 30.13 in 10.0 mi East 4.6 mph - N/A   Clear
11:55 PM 37.4 °F - 24.8 °F 60% 30.12 in 10.0 mi Calm Calm - N/A   Clear